Theta_e
318 318 318 318 319 318 316 316 317 319 319 318 318 317 318 318 317 317 316 315 313 313 312 312 312 311 310 321 321 322 324 329 328 329 331 331 329 328 327 326 324 325 325
312 311 312 312 312 313 313 315 316 316 318 318 317 317 317 318 318 317 316 314 313 313 312 312 312 312 311 312 319 320 323 324 327 327 329 329 331 328 327 324 325 328 328
310 310 310 310 311 311 311 311 311 311 312 312 312 313 313 314 315 316 316 315 313 312 312 311 312 312 312 313 317 319 320 326 325 326 328 329 330 328 324 326 328 327 328
308 307 307 307 306 306 306 306 305 305 305 305 306 307 308 310 311 313 315 314 313 313 312 311 311 312 312 312 311 317 319 323 325 324 325 328 328 327 325 330 327 325 326
306 305 305 304 304 303 303 302 302 302 302 302 302 303 304 305 307 308 310 310 310 314 312 314 313 312 311 311 313 317 318 324 323 324 326 329 326 327 329 330 329 328 327
304 304 303 303 303 302 302 301 302 302 303 304 305 306 307 307 307 307 306 306 310 312 313 315 316 313 311 311 311 309 315 320 323 323 325 327 326 328 329 328 330 328 328
304 304 303 303 303 302 303 304 304 305 305 305 305 305 305 306 306 305 305 306 306 309 312 314 315 314 313 312 313 311 312 319 322 323 324 326 327 328 326 326 327 327 326
303 303 302 302 302 303 303 304 303 303 301 302 302 302 303 304 304 303 303 304 305 307 308 309 311 310 310 310 312 313 313 316 317 319 323 325 325 325 324 325 323 325 323
301 301 301 301 302 302 301 300 300 299 299 299 299 299 300 300 300 301 304 304 303 306 307 308 309 309 308 307 307 309 312 314 316 317 319 322 323 323 323 323 322 322 321
300 300 300 300 299 298 299 299 298 297 297 297 297 297 298 299 299 300 302 304 303 305 308 307 308 307 306 305 305 309 311 315 316 315 316 321 323 323 323 323 323 318 318
298 298 298 297 298 297 296 297 296 296 296 296 296 296 297 297 298 300 301 303 304 305 307 308 308 307 306 306 309 310 310 317 318 317 316 321 323 322 321 319 314 318 319
296 296 296 297 297 295 296 297 297 295 295 295 295 295 296 297 299 300 302 303 303 304 306 307 307 306 306 308 314 314 315 315 317 318 317 321 320 319 317 315 316 316 316
294 296 296 296 296 297 296 297 297 296 295 296 295 295 295 296 298 301 302 303 303 305 305 306 305 305 307 314 316 316 316 317 318 319 315 320 320 318 313 316 318 319 319
294 294 294 296 297 298 298 297 297 298 297 296 295 295 295 296 298 302 303 304 304 305 305 304 304 306 308 315 316 316 318 318 320 321 321 320 319 314 316 318 319 320 321
292 293 295 296 298 300 301 301 301 302 298 297 296 294 295 296 297 300 303 303 304 304 305 306 305 307 309 314 316 317 315 317 318 319 317 319 318 318 318 319 321 321 323
293 294 296 297 299 300 301 306 306 305 303 300 299 296 295 295 297 299 300 301 303 303 305 307 306 309 314 315 316 313 315 317 315 312 317 318 320 319 320 321 322 321 321
294 296 297 298 300 301 302 301 303 307 304 304 301 299 297 296 295 298 299 301 303 305 306 308 309 313 314 316 316 312 312 314 316 317 318 320 321 323 321 321 321 322 322
296 298 298 300 300 302 302 303 303 302 303 303 302 299 298 297 297 297 299 300 304 305 305 306 310 314 316 313 313 316 316 317 317 319 321 322 321 321 321 321 322 321 324
298 300 300 302 302 302 302 303 304 303 302 301 300 299 298 297 297 298 300 300 304 306 305 307 310 311 313 312 314 316 319 318 319 321 319 320 320 320 319 321 322 321 322
300 301 301 302 303 303 302 302 302 301 299 298 298 297 297 297 297 298 300 300 304 306 307 308 311 311 311 315 316 316 319 318 318 316 316 317 318 318 322 320 320 320 321
299 302 304 303 300 300 302 303 302 300 299 298 298 297 297 297 297 297 300 301 304 305 308 309 310 309 310 314 316 316 320 320 319 319 318 318 319 318 317 316 320 322 321
299 302 301 301 301 302 304 304 302 301 299 299 298 297 297 297 298 298 300 302 303 305 306 308 310 311 310 313 314 315 320 320 319 320 319 318 318 316 315 314 320 320 319
299 301 302 302 303 304 305 304 303 301 300 299 298 297 297 297 297 298 300 301 302 304 305 308 308 309 312 314 315 315 320 321 320 319 319 317 316 316 317 319 320 320 319
299 301 302 303 304 304 304 304 303 303 301 300 299 298 298 297 298 300 300 301 302 303 304 307 308 308 311 313 314 315 318 319 319 318 318 316 315 320 321 320 319 320 318
298 300 301 302 303 304 304 304 304 302 302 301 301 299 298 298 299 300 300 301 303 304 304 305 307 307 309 312 313 317 318 318 317 316 316 317 318 320 320 320 318 321 317
297 297 298 299 300 302 302 303 303 303 304 303 302 301 300 298 299 299 299 301 302 304 304 305 306 307 309 312 316 318 318 317 316 317 319 319 318 318 318 317 317 317 317
Wind_Speed
11 13 16 19 22 24 24 25 27 28 29 30 31 32 32 32 30 29 29 28 28 26 26 26 26 26 27 25 30 30 33 34 35 35 30 29 35 35 32 27 30 30 32
13 14 15 15 16 18 20 22 25 27 28 32 33 35 35 36 36 35 34 33 32 30 29 29 31 28 29 29 29 31 30 31 34 34 35 30 28 30 28 24 24 29 25
21 23 24 25 26 27 29 31 32 34 35 36 36 38 38 38 38 38 39 38 35 35 34 33 34 33 32 30 29 32 30 28 27 29 33 26 23 22 23 22 23 22 21
29 30 31 33 34 35 37 38 39 40 42 43 44 45 44 41 38 36 35 39 43 41 39 36 36 35 35 33 33 30 31 27 25 24 28 28 21 18 18 12 9 13 18
33 35 36 37 38 39 40 41 43 44 46 46 46 46 47 46 42 40 39 43 46 43 45 39 37 37 35 35 28 27 30 28 24 24 26 27 25 16 15 12 12 13 15
36 37 37 38 38 38 40 41 42 44 43 42 43 41 40 42 43 43 44 43 41 42 43 39 35 39 39 35 34 29 29 29 26 26 28 31 28 19 16 14 12 14 10
35 34 34 34 35 37 35 35 35 36 36 36 36 36 39 40 41 42 42 44 46 43 39 34 34 33 32 32 29 32 28 27 23 24 26 26 23 21 19 18 17 15 11
36 35 34 32 32 32 31 31 33 35 38 35 37 36 35 34 36 38 40 42 44 42 41 40 36 38 40 35 28 28 30 30 25 24 28 29 24 25 16 17 14 14 14
36 34 33 31 32 30 33 36 37 37 36 38 39 42 42 43 44 35 31 35 42 43 39 38 36 36 36 44 44 38 34 33 30 25 23 25 25 24 22 21 17 18 13
34 35 32 30 33 36 42 40 36 38 44 41 38 39 37 36 37 41 36 30 34 33 33 35 36 38 35 38 38 33 33 31 27 26 26 26 23 18 22 20 20 20 15
34 32 32 37 41 38 39 36 37 37 36 38 38 39 37 33 32 32 34 30 29 26 25 27 27 29 33 30 33 33 32 26 24 24 23 25 24 22 24 21 18 16 14
34 35 42 40 37 36 35 36 35 34 35 36 36 34 30 31 29 25 26 34 29 27 27 22 23 27 26 23 23 27 30 27 25 24 29 24 28 28 25 27 23 18 14
36 41 39 39 36 35 34 34 33 32 33 34 31 31 27 25 26 19 19 21 27 28 26 23 26 24 22 18 17 18 21 25 26 28 30 31 28 29 30 25 18 14 10
39 38 38 37 35 31 31 31 31 31 31 30 30 28 27 23 23 15 17 17 20 23 25 27 27 23 21 18 18 21 24 26 30 32 32 37 31 36 32 26 19 14 10
37 37 36 33 32 31 30 29 29 29 27 29 30 26 25 24 20 17 13 16 14 14 17 17 22 24 22 17 20 14 15 26 29 33 36 28 28 30 26 21 19 17 11
35 34 32 31 30 29 29 28 27 29 25 22 23 27 29 28 23 21 21 17 19 20 16 17 22 20 19 17 21 11 23 33 35 46 28 30 28 28 25 22 19 16 12
30 30 28 28 28 28 28 30 32 27 27 25 21 20 23 26 26 26 24 20 18 18 15 12 19 17 19 23 30 25 28 26 25 26 30 29 25 22 23 20 16 13 10
26 26 26 27 26 27 27 28 30 33 32 27 24 19 16 19 20 25 22 18 11 18 13 15 15 11 19 32 33 15 22 22 25 24 25 23 23 23 20 17 14 12 12
25 25 24 25 26 26 26 28 30 30 29 28 24 19 13 14 15 19 23 17 11 13 19 17 14 14 25 44 28 15 13 26 23 24 25 24 22 20 17 15 13 13 13
23 21 23 25 26 26 24 24 25 32 27 22 17 14 9 9 14 19 24 18 14 11 15 17 16 14 12 33 31 18 14 23 23 22 21 20 18 18 15 15 15 15 14
22 22 23 24 24 21 20 19 23 28 18 14 11 7 7 8 9 14 23 22 19 15 11 14 16 16 14 22 31 18 12 15 19 18 18 19 19 18 15 15 14 14 14
20 20 21 23 21 17 17 18 20 26 19 13 8 3 5 8 6 10 21 24 24 16 14 11 11 13 15 23 28 20 11 14 18 16 18 18 17 17 17 16 15 15 13
18 18 19 20 19 17 17 18 19 17 22 14 8 3 3 9 11 8 17 22 24 19 17 16 13 8 13 22 30 19 11 14 18 20 19 18 17 16 18 18 16 13 12
16 17 18 18 19 19 19 21 19 15 11 16 10 4 1 6 11 8 13 20 18 17 20 19 17 10 15 18 25 20 18 15 17 20 19 18 17 18 19 16 14 12 12
17 16 18 19 20 20 21 20 22 18 12 8 11 8 3 9 10 9 8 15 19 21 21 23 20 15 15 17 17 18 20 19 19 18 18 19 18 19 17 15 13 14 14
20 18 19 19 20 20 21 20 17 18 17 12 8 7 5 6 7 8 10 12 14 17 17 21 24 21 16 15 17 18 21 19 17 20 18 18 17 17 17 15 14 13 13
Wind_Direction
273 272 273 271 269 271 273 273 270 270 267 264 263 263 259 257 261 265 265 266 267 274 279 284 287 289 288 277 279 278 267 263 259 262 265 268 276 283 281 281 276 268 258
307 303 298 293 287 280 282 279 275 275 271 272 272 271 269 265 263 259 259 263 263 261 266 271 279 284 286 286 279 276 273 270 267 264 271 271 274 279 280 279 269 270 246
311 307 302 298 293 288 283 279 276 274 271 268 268 268 268 268 267 263 260 258 256 260 261 263 269 276 279 283 278 279 275 268 270 265 268 268 266 266 279 282 274 246 223
311 306 301 297 295 292 289 286 283 280 277 274 271 269 268 266 264 262 259 258 258 258 257 258 259 264 272 279 280 276 279 268 265 259 258 260 252 260 265 257 245 207 219
309 306 304 302 300 297 294 291 288 285 282 280 277 274 272 268 265 263 260 260 260 259 256 251 256 257 262 271 271 273 279 265 262 256 252 247 247 247 242 242 223 214 217
310 307 305 303 301 298 295 293 290 287 284 282 279 275 272 268 265 262 262 262 259 257 254 249 250 252 254 261 265 277 272 269 255 250 245 244 250 236 239 232 211 215 210
308 305 303 301 298 296 293 290 287 285 285 282 278 276 274 272 269 267 263 261 261 256 253 250 249 249 253 254 265 275 272 264 247 246 245 240 233 229 235 220 219 214 199
305 303 302 299 295 294 291 287 286 285 284 279 281 280 277 271 268 268 266 262 258 256 253 250 250 252 254 258 262 266 274 264 258 252 240 233 239 236 240 218 224 227 224
304 303 302 298 295 292 290 292 291 288 285 285 281 281 275 274 275 271 269 265 257 248 251 249 251 254 257 261 264 260 262 265 256 252 252 241 229 230 226 223 214 225 194
304 303 301 296 294 292 296 299 295 285 287 287 285 280 281 278 271 267 260 267 261 251 246 244 248 255 259 264 260 251 246 255 252 251 249 232 224 225 202 214 212 191 183
303 301 297 298 303 300 301 297 292 293 289 285 282 278 279 276 275 270 258 256 255 249 246 240 247 258 264 256 254 239 238 246 245 246 246 239 213 192 181 195 197 183 173
303 300 304 306 306 302 302 300 299 295 292 290 289 285 276 274 268 272 264 247 248 258 245 243 256 263 259 261 243 233 238 241 236 239 230 228 195 169 175 186 178 171 170
303 305 307 310 309 306 304 304 301 299 294 291 287 284 283 278 270 267 260 249 245 242 236 248 267 265 255 241 228 237 237 231 234 228 222 232 195 185 179 179 175 171 168
308 310 311 310 311 308 305 304 301 297 294 290 286 279 278 276 272 269 264 250 239 235 245 253 263 251 252 234 238 253 240 223 220 216 217 195 190 181 178 176 177 177 177
312 311 312 313 312 311 310 307 303 300 294 289 283 275 274 269 269 247 224 218 227 243 256 249 246 246 247 237 220 223 209 196 197 180 172 187 177 174 176 175 180 182 180
311 313 315 315 314 314 313 311 310 312 309 295 283 270 264 253 244 243 240 237 243 249 237 234 237 238 230 219 214 167 181 171 152 157 184 180 173 173 175 178 184 188 184
315 317 320 320 319 319 318 315 315 315 313 313 304 279 264 259 251 237 236 240 248 220 222 223 224 224 228 207 184 143 149 162 182 187 182 171 174 175 183 183 185 193 189
321 325 326 324 324 325 323 322 320 317 313 313 309 300 271 256 246 232 225 231 225 215 217 224 213 211 192 171 163 166 172 196 177 177 179 173 178 187 184 189 192 193 190
327 331 333 333 332 331 331 331 331 325 316 310 305 297 271 248 242 225 214 229 204 216 218 216 209 207 170 162 179 184 176 178 171 176 181 183 187 191 191 193 192 194 194
331 337 341 338 338 338 337 330 334 332 322 318 309 296 263 236 227 216 209 206 186 171 189 203 203 197 188 192 194 187 183 184 175 177 181 184 189 188 180 181 192 195 188
336 341 341 343 340 338 338 340 336 345 339 326 314 290 230 221 223 216 206 207 190 166 143 186 197 206 194 193 197 195 175 171 171 176 185 187 181 179 177 181 191 183 180
340 342 346 347 347 352 352 349 347 350 352 346 338 305 206 197 212 214 207 209 203 189 166 157 154 182 191 188 205 201 189 175 175 176 177 184 185 183 188 197 192 182 185
350 351 354 359 3 360 355 356 353 349 357 358 349 349 228 197 191 200 203 200 202 208 187 177 160 153 182 199 180 194 187 183 185 189 190 191 192 187 192 191 183 185 193
3 3 1 7 8 6 0 360 353 354 352 360 6 15 255 199 186 189 196 195 197 203 200 192 180 171 173 187 194 208 192 189 192 197 200 199 196 185 186 186 187 189 195
13 11 8 8 7 7 9 14 14 20 12 359 342 4 6 165 180 178 180 184 197 204 211 205 205 200 185 180 181 194 190 186 188 192 187 185 191 192 191 189 197 191 208
20 17 15 12 7 6 6 13 13 17 27 25 18 355 21 179 189 182 192 183 186 198 203 209 210 212 197 187 187 185 173 173 181 179 178 183 184 183 182 188 193 201 216